Hourly Data Report for October 31, 2016

All times are specified in Local Standard Time (LST). Add 1 hour to adjust for Daylight Saving Time where and when it is observed.

BAKER LAKE A
NUNAVUT

64°17'56.000" N
96°04'40.000" W
18.60 m
2300503
71926
YBK

Download Data

Hourly Data (October 2016)
Hourly Data Report for October 31, 2016
Temp Definition
°C
Dew Point Temp Definition
°C
Rel Hum Definition
%
Wind Dir Definition
10's deg

Wind Spd Definition
km/h
Visibility Definition
km
Stn Press Definition
kPa
Hmdx Definition


Wind Chill Definition


Weather Definition


TIME
00:00 Legend Double Dagger -9.5 -11.4 86 32 36 24.1 100.97   -20 Blowing Snow
01:00 Legend Double Dagger -10.2 -12.4 84 31 36 24.1 100.99   -21 Blowing Snow
02:00 Legend Double Dagger -10.6 -12.7 85 31 35 24.1 101.02   -21 LegendNANA
03:00 Legend Double Dagger -10.2 -12.3 85 33 34 24.1 101.02   -20 Blowing Snow
04:00 Legend Double Dagger -8.9 -10.8 86 34 36 24.1 101.00   -19 Blowing Snow
05:00 Legend Double Dagger -9.2 -11.3 85 33 32 24.1 100.98   -19 Blowing Snow
06:00 Legend Double Dagger -9.3 -11.4 85 33 34 24.1 101.02   -19 Blowing Snow
07:00 Legend Double Dagger -10.1 -12.2 85 31 32 24.1 101.03   -20 Blowing Snow
08:00 Legend Double Dagger -12.9 -15.2 83 31 30 32.2 101.04   -23 Blowing Snow
09:00 Legend Double Dagger -13.5 -16.1 81 32 32 32.2 101.05   -24 Mainly Clear
10:00 Legend Double Dagger -13.9 -16.8 79 32 30 32.2 101.08   -25 Blowing Snow
11:00 Legend Double Dagger -14.6 -17.5 79 33 34 32.2 101.10   -26 Blowing Snow
12:00 Legend Double Dagger -14.6 -17.8 77 32 23 32.2 101.12   -24 Blowing Snow
13:00 Legend Double Dagger -15.1 -18.3 77 34 36 32.2 101.08   -27 Blowing Snow
14:00 Legend Double Dagger -15.4 -18.7 76 34 36 32.2 101.09   -27 Blowing Snow
15:00 Legend Double Dagger -16.3 -19.6 76 34 26 32.2 101.12   -27 Blowing Snow
16:00 Legend Double Dagger -17.0 -20.1 77 33 32 32.2 101.09   -29 Blowing Snow
17:00 Legend Double Dagger -17.7 -20.8 77 34 24 32.2 101.13   -28 Blowing Snow
18:00 Legend Double Dagger -17.7 -20.7 78 33 23 24.1 101.13   -28 Blowing Snow
19:00 Legend Double Dagger -17.4 -19.9 81 33 26 24.1 101.16   -28 Blowing Snow
20:00 Legend Double Dagger -17.3 -19.4 84 34 19 24.1 101.14   -27 LegendNANA
21:00 Legend Double Dagger -17.8 -19.7 85 31 14 24.1 101.11   -26 Mainly Clear
22:00 Legend Double Dagger -15.9 -18.0 84 30 6 24.1 101.08   -20 LegendNANA
23:00 Legend Double Dagger -16.3 -18.6 83 30 13 24.1 101.06   -24 LegendNANA

Notes on Data Quality.

Legend

  • E = Estimated
  • M = Missing
  • NA = Not Available
  • ‡ = Partner data that is not subject to review by the National Climate Archives
Date modified: